This is the latest recevied weather packets stored in our database for station/object W8CWV-13. If no packets are shown the sender has not sent any weather packets the latest 10 day(s).
| Time | Temp. | Humidity | Pressure | Rain* | Wind** | Luminosity | Snow |
|---|---|---|---|---|---|---|---|
| 1777561050 | 18.89° C | 100% | 1021.1 hPa | - | - | - | - |
| 1777560470 | 18.89° C | 100% | 1022.6 hPa | - | - | - | - |
| 1777559895 | 16.11° C | 100% | 1023.3 hPa | - | - | - | - |
| 1777559324 | 16.67° C | 100% | 1023.4 hPa | - | - | - | - |
| 1777558759 | 17.78° C | 100% | 1023.5 hPa | - | - | - | - |
| 1777558180 | 18.33° C | 100% | 1023.1 hPa | - | - | - | - |
| 1777557605 | 17.22° C | 100% | 1023 hPa | - | - | - | - |
| 1777557026 | 15° C | 100% | 1022.5 hPa | - | - | - | - |
| 1777556457 | 15° C | 100% | 1022.8 hPa | - | - | - | - |
| 1777555884 | 16.67° C | 100% | 1022.8 hPa | - | - | - | - |
| 1777555317 | 17.22° C | 100% | 1022.6 hPa | - | - | - | - |
| 1777554740 | 17.22° C | 100% | 1022.5 hPa | - | - | - | - |
| 1777554165 | 15.56° C | 100% | 1022.5 hPa | - | - | - | - |
| 1777553594 | 16.67° C | 100% | 1021.9 hPa | - | - | - | - |
| 1777553021 | 16.67° C | 100% | 1021.5 hPa | - | - | - | - |
| 1777552450 | 15.56° C | 100% | 1021.6 hPa | - | - | - | - |
| 1777551876 | 15° C | 100% | 1021.6 hPa | - | - | - | - |
| 1777551302 | 15° C | 100% | 1021.4 hPa | - | - | - | - |
| 1777550726 | 14.44° C | 100% | 1020.9 hPa | - | - | - | - |
| 1777550154 | 14.44° C | 100% | 1020.3 hPa | - | - | - | - |
| 1777549581 | 13.33° C | 100% | 1019.5 hPa | - | - | - | - |
| 1777549003 | 12.78° C | 100% | 1018.8 hPa | - | - | - | - |
| 1777548432 | 12.22° C | 100% | 1017.9 hPa | - | - | - | - |
| 1777547858 | 11.67° C | 100% | 1017.3 hPa | - | - | - | - |
| 1777547285 | 11.11° C | 100% | 1017.2 hPa | - | - | - | - |
* Rain since midnight (hover to see other rain measurements)
** Current wind speed in m/s (hover to see current wind gust speed)